Weather in Konevo

Russia / Novosibirsk Oblast     54°14′04″N   79°00′05″E
temp.,
°C
wind,
m/s
gust,
m/s
humid.,
%
clouds,
%
prec.,
mm/h
press.,
hPa
HPBL,
m
27 february, sat
sat2701:00−27sw4897100 0.1 1036233
04:00−27sw4797100 0.1 1036234
07:00−29ssw3698100 0.1 1037142
10:00−28ssw3797100 0.0 1036213
13:00−26sw3596100 0.1 1037265
16:00−25ssw359380 0.0 1037315
19:00−27ssw349659 0.0 103735
22:00−29s34970 0.0 103732
28 february, sun
sun2801:00−29s34970 0.0 103743
04:00−29sse349520 0.0 103651
07:00−29sse449517 0.0 103563
10:00−27se489256 0.0 1033175
13:00−21se589078 0.0 1029270
16:00−17se6989100 0.0 1027372
19:00−13se51093100 0.2 1022419
22:00−10ese51193100 0.1 1019351
1 march, mon
mon101:00−8se61195100 0.6 1014425
04:00−5se61195100 1.3 1009430
07:00−1s51198100 3.6 1006445
10:00+1sw71398100 0.4 1005686
13:00+1sw713100100 0.5 1004713
16:00+1sw71296100 0.1 1004801
19:00−1wsw71393100 0.4 1005690
22:00−8wsw7139173 0.1 1008351
2 march, tue
tue201:00−12w5109579 0.1 1010270
04:00−15w5896100 0.1 1014206
07:00−19wsw3698100 0.1 1016114
10:00−20wsw359897 0.0 1018123
13:00−16sw349490 0.0 1019255
16:00−14sw349291 0.0 1018323
19:00−16s129695 0.0 101720
22:00−15se2297100 0.2 101761
3 march, wed
wed301:00−16se229799 0.4 101620
04:00−16ssw0197100 0.3 101520
07:00−15nnw0097100 0.8 101520
10:00−15w1297100 0.2 101677
13:00−13w349293 0.3 1018401
16:00−12wsw4590100 0.1 1019518
19:00−16sw3395100 0.1 102132
22:00−18ssw349888 0.0 102237